TimeEDT,TemperatureF,Dew PointF,Humidity,Sea Level PressureIn,VisibilityMPH,Wind Direction,Wind SpeedMPH,Gust SpeedMPH,PrecipitationIn,Events,Conditions,WindDirDegrees,DateUTC
12:56 AM,41.9,32.0,68,30.15,9.0,North,5.8,-,N/A,,Clear,360,2012-10-07 04:56:00
1:56 AM,41.9,32.0,68,30.14,9.0,North,4.6,-,N/A,,Overcast,360,2012-10-07 05:56:00
2:56 AM,41.0,32.9,73,30.14,9.0,NNW,4.6,-,N/A,,Overcast,330,2012-10-07 06:56:00
3:56 AM,41.0,32.9,73,30.14,9.0,Calm,Calm,-,N/A,,Overcast,0,2012-10-07 07:56:00
4:56 AM,41.0,34.0,76,30.13,9.0,NW,3.5,-,N/A,,Overcast,320,2012-10-07 08:56:00
5:56 AM,41.0,34.0,76,30.13,9.0,WNW,3.5,-,N/A,,Overcast,300,2012-10-07 09:56:00
6:56 AM,41.0,34.0,76,30.14,8.0,Calm,Calm,-,N/A,,Overcast,0,2012-10-07 10:56:00
7:56 AM,39.9,34.0,79,30.14,8.0,NW,3.5,-,N/A,,Overcast,310,2012-10-07 11:56:00
8:56 AM,41.0,34.9,79,30.16,7.0,WNW,4.6,-,N/A,,Partly Cloudy,290,2012-10-07 12:56:00
9:56 AM,41.9,34.0,73,30.17,7.0,West,4.6,-,N/A,,Clear,280,2012-10-07 13:56:00
10:56 AM,43.0,32.0,65,30.17,8.0,West,6.9,-,N/A,,Partly Cloudy,270,2012-10-07 14:56:00
11:56 AM,45.0,32.0,60,30.17,8.0,Variable,6.9,-,N/A,,Scattered Clouds,0,2012-10-07 15:56:00
12:56 PM,43.9,32.0,63,30.19,6.0,WNW,9.2,-,N/A,,Haze,290,2012-10-07 16:56:00
1:01 PM,42.8,33.8,70,30.18,5.0,West,9.2,-,N/A,,Haze,260,2012-10-07 17:01:00
1:48 PM,42.8,33.8,70,30.17,7.0,WNW,5.8,-,N/A,,Mostly Cloudy,290,2012-10-07 17:48:00
1:56 PM,43.9,32.9,65,30.19,8.0,WNW,8.1,-,N/A,,Partly Cloudy,290,2012-10-07 17:56:00
2:56 PM,47.8,32.9,56,30.17,7.0,Variable,4.6,-,N/A,,Overcast,0,2012-10-07 18:56:00
3:56 PM,45.9,31.1,56,30.17,7.0,WSW,10.4,-,N/A,,Overcast,250,2012-10-07 19:56:00
4:56 PM,45.9,32.0,58,30.16,7.0,West,6.9,-,N/A,,Overcast,270,2012-10-07 20:56:00
5:56 PM,45.9,31.1,56,30.17,8.0,West,9.2,-,N/A,,Overcast,270,2012-10-07 21:56:00
6:56 PM,45.0,31.1,58,30.18,8.0,West,8.1,-,N/A,,Overcast,280,2012-10-07 22:56:00
7:56 PM,43.9,32.0,63,30.19,5.0,WSW,4.6,-,N/A,,Haze,250,2012-10-07 23:56:00
8:56 PM,43.0,32.9,68,30.20,9.0,West,3.5,-,N/A,,Overcast,270,2012-10-08 00:56:00
9:56 PM,38.8,32.0,76,30.21,9.0,SW,4.6,-,N/A,,Mostly Cloudy,230,2012-10-08 01:56:00
10:56 PM,38.8,30.0,71,30.21,9.0,WSW,3.5,-,N/A,,Partly Cloudy,240,2012-10-08 02:56:00
11:56 PM,36.0,31.1,82,30.22,8.0,West,3.5,-,N/A,,Scattered Clouds,280,2012-10-08 03:56:00